TimeCST,TemperatureF,Dew PointF,Humidity,Sea Level PressureIn,VisibilityMPH,Wind Direction,Wind SpeedMPH,Gust SpeedMPH,PrecipitationIn,Events,Conditions,WindDirDegrees,DateUTC
12:52 AM,21.9,17.1,82,30.44,10.0,Calm,Calm,-,N/A,,Clear,0,2013-03-06 06:52:00
1:52 AM,23.0,16.0,74,30.46,10.0,Calm,Calm,-,N/A,,Clear,0,2013-03-06 07:52:00
2:52 AM,21.0,16.0,81,30.45,10.0,NNE,4.6,-,N/A,,Clear,20,2013-03-06 08:52:00
3:52 AM,21.0,16.0,81,30.46,10.0,Calm,Calm,-,N/A,,Clear,0,2013-03-06 09:52:00
4:52 AM,16.0,12.9,88,30.47,10.0,Calm,Calm,-,N/A,,Clear,0,2013-03-06 10:52:00
5:52 AM,17.1,14.0,88,30.46,10.0,Calm,Calm,-,N/A,,Clear,0,2013-03-06 11:52:00
6:52 AM,14.0,12.0,92,30.45,10.0,NE,6.9,-,N/A,,Clear,50,2013-03-06 12:52:00
7:52 AM,21.0,17.1,85,30.45,10.0,ENE,9.2,-,N/A,,Clear,60,2013-03-06 13:52:00
8:52 AM,25.0,19.0,78,30.46,10.0,East,9.2,-,N/A,,Clear,90,2013-03-06 14:52:00
9:52 AM,27.0,19.0,72,30.48,10.0,SE,5.8,-,N/A,,Clear,130,2013-03-06 15:52:00
10:52 AM,30.9,19.9,64,30.47,10.0,Variable,3.5,-,N/A,,Clear,0,2013-03-06 16:52:00
11:52 AM,34.0,19.9,56,30.45,10.0,South,4.6,-,N/A,,Clear,190,2013-03-06 17:52:00
12:52 PM,37.9,19.9,48,30.41,10.0,Calm,Calm,-,N/A,,Clear,0,2013-03-06 18:52:00
1:52 PM,41.0,21.0,45,30.36,10.0,SE,8.1,-,N/A,,Clear,140,2013-03-06 19:52:00
2:52 PM,44.1,19.9,38,30.33,10.0,Calm,Calm,-,N/A,,Clear,0,2013-03-06 20:52:00
3:52 PM,46.0,21.0,37,30.31,10.0,South,10.4,-,N/A,,Clear,170,2013-03-06 21:52:00
4:52 PM,43.0,21.9,43,30.29,10.0,SE,10.4,-,N/A,,Clear,130,2013-03-06 22:52:00
5:52 PM,39.0,21.0,49,30.28,10.0,SE,8.1,-,N/A,,Clear,130,2013-03-06 23:52:00
6:52 PM,36.0,21.9,57,30.28,10.0,ESE,8.1,-,N/A,,Clear,120,2013-03-07 00:52:00
7:52 PM,33.1,21.9,64,30.28,10.0,ESE,8.1,-,N/A,,Clear,120,2013-03-07 01:52:00
8:52 PM,30.9,21.9,69,30.27,10.0,ESE,6.9,-,N/A,,Clear,120,2013-03-07 02:52:00
9:52 PM,30.0,21.9,72,30.26,10.0,ESE,4.6,-,N/A,,Clear,110,2013-03-07 03:52:00
10:52 PM,28.9,21.9,75,30.26,10.0,East,4.6,-,N/A,,Clear,90,2013-03-07 04:52:00
11:52 PM,28.4,21.2,74,30.22,10.0,East,4.6,-,N/A,,Clear,100,2013-03-07 05:52:00